Starlink 2064

decayed
NORAD ID: 47671 Int'l Des: 2021-012 Owner: SPXS Country: US Constellation: starlink
LEOCIRCULAR
Group

About Starlink 2064

Description loading...

Altitude History

Altitude vs Time

uPlot chart will show altitude changes over time

Two-Line Element Set

1 47671U 21012BD 25021.61174944 .15233331 12519-4 57977-3 0 9998
2 47671 53.0441 76.0377 0003086 327.8355 109.8201 16.44107362217997
Epoch: Jan 21, 2025 • Age: 7932 hours

Current Status

Position data unavailable
Launch Date Feb 16, 2021
Age 4.8 years
Decay Date Jan 21, 2025
Type internet

Technical Details

Classification Payload
Mass 260.00 kg
Dry Mass 248.00 kg
Total Mass 260.00 kg
Length 0.20 m
Diameter 2.80 m
Span 9.00 m
Shape Box + pan
Manufacturer SPXS
Bus Type Starlink
Phase Status Reentered
Owner/State SPXS/US

Large Constellations

Loading constellations...